Home   Weather   Bernburg (Saale)   Past weeks

Flag for Germany Past Weather in Bernburg (Saale), Saxony-Anhalt, Germany — Yesterday and Last 2 Weeks

Now
52 °F

Clear.


Feels Like: 49 °F
Forecast: 51 / 67 °F
Wind: 8 mph from Southeast

Location: Leipzig-Schkeuditz

Current Time: Sep 25, 2016 at 4:05:08 AM

Latest Report: Sep 25, 2016 at 3:20 AM


Visibility: 10 mi

Pressure: 30.21 "Hg

Humidity: 94%

Dew Point: 50 °F

Location of Bernburg (Saale)Location

Past Weather in Bernburg (Saale) — Graph

°F

Bernburg (Saale) Temperature Yesterday

Maximum temperature yesterday: 70 °F (at 2:50 PM)
Minimum temperature yesterday: 50 °F (at 5:50 AM)
Average temperature yesterday: 60 °F

High & Low Weather Summary for the Past Weeks

 TemperatureHumidityPressure
High90 °F (Sep 12, 2:50 PM)100% (Sep 10, 6:20 AM)30.33 "Hg (Sep 10, 6:20 AM)
Low48 °F (Sep 22, 6:50 AM)27% (Sep 12, 4:20 PM)29.86 "Hg (Sep 17, 3:50 AM)
Average65 °F69%30.05 "Hg
* Reported Sep 10 2:20 AM — Sep 25 2:50 AM, Bernburg (Saale), Weather by CustomWeather, © 2016

Note: Actual official high and low records may vary slightly from our data, if they occured in-between our weather recording intervals... More about our weather records

Advertising

Bernburg (Saale) Weather History for the Previous 24 Hours

Scroll right to see more
 ConditionsComfort  
Time TempWeatherWind HumidityBarometerVisibility
2:50 AM
Sun, Sep 25
52 °FClear.7 mph94%30.21 "Hg10 mi
2:20 AM52 °FClear.6 mph94%30.21 "Hg10 mi
1:50 AM54 °FClear.7 mph88%30.21 "Hg10 mi
1:20 AM54 °FClear.6 mph88%30.21 "Hg10 mi
12:50 AM55 °FClear.5 mph82%30.21 "Hg10 mi
12:20 AM54 °FClear.6 mph88%30.21 "Hg10 mi
11:50 PM
Sat, Sep 24
55 °FClear.7 mph82%30.21 "Hg10 mi
11:20 PM55 °FClear.6 mph82%30.21 "Hg10 mi
10:50 PM57 °FClear.7 mph82%30.21 "Hg10 mi
10:20 PM59 °FClear.9 mph77%30.21 "Hg10 mi
9:50 PM59 °FClear.8 mph77%30.24 "Hg10 mi
9:20 PM61 °FClear.8 mph72%30.24 "Hg10 mi
8:50 PM57 °FClear.8 mph77%30.24 "Hg10 mi
8:20 PM57 °FClear.8 mph77%30.24 "Hg10 mi
7:50 PM59 °FClear.7 mph77%30.24 "Hg10 mi
7:20 PM61 °FClear.7 mph72%30.24 "Hg10 mi
6:50 PM63 °FPartly sunny.5 mph68%30.24 "HgN/A
6:20 PM68 °FPartly sunny.3 mph53%30.24 "HgN/A
5:50 PM70 °FPartly sunny.5 mph50%30.24 "HgN/A
5:20 PM70 °FPartly sunny.3 mph50%30.24 "HgN/A
4:50 PM70 °FPartly sunny.5 mph50%30.24 "HgN/A
4:20 PM70 °FScattered clouds.7 mph53%30.27 "HgN/A
3:50 PM70 °FScattered clouds.5 mph53%30.27 "HgN/A
3:20 PM70 °FScattered clouds.1 mph53%30.27 "HgN/A
2:50 PM70 °FScattered clouds.6 mph50%30.27 "HgN/A
2:20 PM68 °FScattered clouds.6 mph56%30.30 "HgN/A
1:50 PM68 °FBroken clouds.5 mph56%30.30 "HgN/A
1:20 PM68 °FPartly sunny.7 mph56%30.30 "HgN/A
12:50 PM68 °FPartly sunny.5 mph53%30.30 "HgN/A
12:20 PM66 °FPartly sunny.5 mph56%30.30 "HgN/A
11:50 AM66 °FSunny.1 mph52%30.30 "Hg10 mi
11:20 AM64 °FPartly sunny.5 mph64%30.33 "HgN/A
10:50 AM63 °FScattered clouds.5 mph68%30.33 "HgN/A
10:20 AM61 °FScattered clouds.3 mph77%30.33 "HgN/A
9:50 AM59 °FBroken clouds.5 mph82%30.33 "HgN/A
9:20 AM55 °FBroken clouds.5 mph88%30.33 "HgN/A
8:50 AM55 °FScattered clouds.5 mph88%30.30 "HgN/A
8:20 AM52 °FScattered clouds.5 mph100%30.30 "Hg6 mi
7:50 AM50 °FScattered clouds.3 mph100%30.30 "Hg6 mi
7:20 AM50 °FClear.2 mph94%30.30 "Hg5 mi
6:50 AM50 °FPassing clouds.5 mph94%30.30 "HgN/A
6:20 AM52 °FPassing clouds.3 mph88%30.30 "HgN/A
5:50 AM50 °FClear.5 mph94%30.30 "Hg10 mi
5:20 AM52 °FClear.5 mph88%30.30 "Hg10 mi
4:50 AM52 °FPassing clouds.5 mph94%30.27 "HgN/A
4:20 AM52 °FClear.7 mph94%30.27 "Hg10 mi
Weather by CustomWeather, © 2016

See weather overviewHow to use our weather pages